EW5291 Weather Reports


Display with metric or nautical units.
time (UTC)temp
F
wind
direction
speed
MPH
gust
MPH
rain 1hr
in
rain 24hr
in
rain mn
in
humidity
%
barometer
mb
20260901074539 65 190 0.0 0.0 0.01 0.01 0.01 82 1016.7
20260901073037 65 190 0.0 0.0 0.01 0.01 0.01 81 1016.8
20260901071540 66 190 0.0 0.0 0.01 0.01 0.01 81 1016.9
20260901070036 66 190 0.0 0.0 0.00 0.00 0.00 80 1017.2
20260901064532 66 190 0.0 0.0 0.00 0.00 0.00 79 1017.2
20260901063050 66 190 0.0 0.0 0.00 0.00 0.00 78 1017.2
20260901061530 66 190 0.0 0.0 0.00 0.00 0.00 78 1017.1
20260901060028 66 190 0.0 0.0 0.00 0.00 0.00 77 1017.0
20260901054528 66 190 0.0 0.0 0.00 0.00 0.00 77 1017.4
20260901053032 67 190 0.0 0.0 0.00 0.00 0.00 77 1017.4
20260901051523 67 190 0.0 0.0 0.00 0.00 0.00 77 1017.5
20260901050022 67 190 0.0 0.0 0.00 0.00 0.00 76 1017.6
20260901044520 67 190 0.0 0.0 0.00 0.00 0.00 76 1017.5
20260901043028 67 190 0.0 0.0 0.00 0.00 0.00 74 1017.4
20260901041518 67 190 0.0 0.0 0.00 0.00 0.00 74 1017.5
20260901040016 67 190 0.0 0.0 0.00 0.00 0.00 76 1017.5
20260901034516 67 190 0.0 0.0 0.00 0.00 0.00 76 1017.6
20260901033018 67 190 0.0 0.0 0.00 0.00 0.00 77 1017.7
20260901031514 68 190 0.0 0.0 0.00 0.00 0.00 73 1017.8
20260901031005 68 0 0.0 0.0 0.00 0.00 0.00 74 1017.6
20260901030504 68 0 0.0 0.0 0.00 0.00 0.00 75 1017.7
20260901030016 68 190 0.0 0.0 0.00 0.00 0.00 74 1017.9
20260901030004 68 0 0.0 0.0 0.00 0.00 0.00 74 1017.8
20260901025504 68 0 0.0 0.0 0.00 0.00 0.00 74 1017.9
20260901025004 68 0 0.0 0.0 0.00 0.00 0.00 74 1017.8
20260901024514 68 190 0.0 0.0 0.00 0.00 0.00 74 1017.9
20260901024505 68 0 0.0 0.0 0.00 0.00 0.00 74 1017.8
20260901023505 68 0 0.0 0.0 0.00 0.00 0.00 74 1017.6
20260901023017 68 190 0.0 0.0 0.00 0.00 0.00 74 1017.7
20260901023005 68 0 0.0 0.0 0.00 0.00 0.00 74 1017.6
20260901022505 69 0 0.0 0.0 0.00 0.00 0.00 73 1017.6
20260901022005 69 0 0.0 0.0 0.00 0.00 0.00 73 1017.5
20260901021516 68 190 0.0 0.0 0.00 0.00 0.00 72 1017.6
20260901021005 69 191 0.0 2.0 0.00 0.00 0.00 72 1017.4
20260901020505 69 0 0.0 0.0 0.00 0.00 0.00 72 1017.4
20260901020016 68 190 0.0 0.0 0.00 0.00 0.00 72 1017.6
20260901020005 69 0 0.0 0.0 0.00 0.00 0.00 72 1017.5
20260901015505 69 0 0.0 0.0 0.00 0.00 0.00 72 1017.5
20260901015005 69 0 0.0 0.0 0.00 0.00 0.00 71 1017.6
20260901014513 69 190 0.0 0.0 0.00 0.00 0.00 71 1017.7
20260901014505 69 0 0.0 0.0 0.00 0.00 0.00 71 1017.4
20260901014005 70 0 0.0 0.0 0.00 0.00 0.00 72 1017.5
20260901013504 70 0 0.0 0.0 0.00 0.00 0.00 70 1017.5
20260901013015 69 190 0.0 0.0 0.00 0.00 0.00 70 1017.6
20260901013005 70 0 0.0 0.0 0.00 0.00 0.00 70 1017.5
20260901012504 70 0 0.0 0.0 0.00 0.00 0.00 70 1017.5
20260901012004 70 0 0.0 0.0 0.00 0.00 0.00 70 1017.7
20260901011523 69 190 0.0 0.0 0.00 0.00 0.00 70 1017.7
20260901011005 70 191 0.0 2.0 0.00 0.00 0.00 70 1017.7
20260901010505 69 191 0.0 2.0 0.00 0.00 0.00 72 1017.6
20260901010015 69 190 0.0 0.0 0.00 0.00 0.00 74 1017.7
20260901010005 69 0 0.0 0.0 0.00 0.00 0.00 74 1017.6
20260901005005 69 0 0.0 0.0 0.00 0.00 0.00 75 1017.7
20260901004514 69 190 0.0 0.0 0.00 0.00 0.00 76 1017.8
20260901004505 69 0 0.0 0.0 0.00 0.00 0.00 76 1017.7
20260901004005 70 0 0.0 0.0 0.00 0.00 0.00 77 1017.7
20260901003505 70 0 0.0 0.0 0.00 0.00 0.00 77 1017.6
20260901003014 69 190 0.0 0.0 0.00 0.00 0.00 77 1017.7
20260901002504 70 0 0.0 0.0 0.00 0.00 0.00 77 1017.5
20260901002005 70 0 0.0 0.0 0.00 0.00 0.00 77 1017.6
20260901001513 69 190 0.0 0.0 0.00 0.00 0.00 77 1017.7
20260901001505 70 0 0.0 0.0 0.00 0.00 0.00 77 1017.6
20260901001004 70 0 0.0 0.0 0.00 0.00 0.00 77 1017.5
20260901000504 70 0 0.0 0.0 0.00 0.00 0.00 77 1017.4
20260901000019 69 190 0.0 0.0 0.00 0.00 0.00 77 1017.5
20260831235504 70 0 0.0 0.0 0.00 0.00 0.00 77 1017.4
20260831235005 70 0 0.0 0.0 0.00 0.00 0.00 77 1017.5
20260831234514 70 190 0.0 0.0 0.00 0.00 0.00 77 1017.5
20260831234505 70 0 0.0 0.0 0.00 0.00 0.00 77 1017.4
20260831233505 70 0 0.0 0.0 0.00 0.00 0.00 77 1017.5
20260831233013 70 190 0.0 0.0 0.00 0.00 0.00 76 1017.7
20260831232505 70 0 0.0 0.0 0.00 0.00 0.00 76 1017.7
20260831231523 70 190 0.0 0.0 0.00 0.00 0.00 75 1017.8
20260831231505 71 0 0.0 0.0 0.00 0.00 0.00 75 1017.8
20260831231005 71 0 0.0 0.0 0.00 0.00 0.00 75 1017.8
20260831230504 71 0 0.0 0.0 0.00 0.00 0.00 74 1017.7
20260831230013 71 190 0.0 0.0 0.00 0.00 0.00 73 1017.8
20260831230005 71 0 0.0 0.0 0.00 0.00 0.00 73 1017.8
20260831225504 72 0 0.0 0.0 0.00 0.00 0.00 73 1017.9
20260831225005 72 0 0.0 0.0 0.00 0.00 0.00 72 1017.9
20260831224540 71 190 0.0 0.0 0.00 0.00 0.00 71 1017.9
20260831224505 72 0 0.0 0.0 0.00 0.00 0.00 71 1017.9
20260831224004 72 0 0.0 0.0 0.00 0.00 0.00 71 1017.8
20260831223505 72 0 0.0 0.0 0.00 0.00 0.00 71 1017.8
20260831223014 72 190 0.0 0.0 0.00 0.00 0.00 70 1017.8
20260831223005 73 0 0.0 0.0 0.00 0.00 0.00 70 1017.8
20260831222505 73 0 0.0 0.0 0.00 0.00 0.00 70 1017.9
20260831221513 73 190 0.0 0.0 0.00 0.00 0.00 69 1018.0
20260831221505 73 0 0.0 0.0 0.00 0.00 0.00 69 1017.8
20260831221004 74 0 0.0 0.0 0.00 0.00 0.00 68 1017.9
20260831220013 73 190 0.0 0.0 0.00 0.00 0.00 67 1018.0
20260831215005 74 0 0.0 0.0 0.00 0.00 0.00 65 1017.9
20260831214513 74 190 0.0 0.0 0.00 0.00 0.00 64 1018.0
20260831214504 74 0 0.0 0.0 0.00 0.00 0.00 64 1018.0
20260831214005 74 0 0.0 0.0 0.00 0.00 0.00 65 1017.9
20260831213505 74 0 0.0 0.0 0.00 0.00 0.00 65 1017.9
20260831213017 74 190 0.0 0.0 0.00 0.00 0.00 65 1017.9
20260831213004 75 0 0.0 0.0 0.00 0.00 0.00 65 1017.9
20260831212004 75 0 0.0 0.0 0.00 0.00 0.00 64 1017.8
20260831211513 74 190 0.0 0.0 0.00 0.00 0.00 64 1017.9
20260831211505 75 0 0.0 0.0 0.00 0.00 0.00 64 1017.9
20260831211005 75 0 0.0 0.0 0.00 0.00 0.00 64 1017.9
20260831210504 75 0 0.0 0.0 0.00 0.00 0.00 63 1017.8
20260831210017 75 190 0.0 0.0 0.00 0.00 0.00 61 1017.9
20260831210005 75 0 0.0 0.0 0.00 0.00 0.00 61 1017.8
20260831205504 76 0 0.0 0.0 0.00 0.00 0.00 61 1017.9
20260831205005 76 0 0.0 0.0 0.00 0.00 0.00 59 1017.9
20260831204517 75 190 0.0 1.0 0.00 0.00 0.00 56 1017.9
20260831204504 76 191 0.0 1.0 0.00 0.00 0.00 56 1017.8
20260831204005 76 191 0.0 1.0 0.00 0.00 0.00 54 1017.8
20260831203504 77 191 0.0 4.0 0.00 0.00 0.00 52 1018.0
20260831203023 77 190 0.0 4.0 0.00 0.00 0.00 52 1018.1
20260831203005 77 191 0.0 4.0 0.00 0.00 0.00 52 1018.0
20260831202504 78 191 0.0 1.0 0.00 0.00 0.00 53 1017.9
20260831202005 77 0 0.0 0.0 0.00 0.00 0.00 54 1018.1
20260831201514 76 190 0.0 0.0 0.00 0.00 0.00 55 1018.2
20260831201504 77 0 0.0 0.0 0.00 0.00 0.00 55 1018.1
20260831201005 77 191 0.0 4.0 0.00 0.00 0.00 54 1018.1
20260831200012 77 190 0.0 0.0 0.00 0.00 0.00 55 1018.3
20260831200004 77 0 0.0 0.0 0.00 0.00 0.00 55 1018.1
20260831195004 78 0 0.0 0.0 0.00 0.00 0.00 56 1018.2
20260831194514 77 190 0.0 0.0 0.00 0.00 0.00 55 1018.3
20260831194505 77 0 0.0 0.0 0.00 0.00 0.00 55 1018.2
20260831194004 77 191 0.0 1.0 0.00 0.00 0.00 53 1018.2
20260831193505 77 191 0.0 1.0 0.00 0.00 0.00 54 1018.3
20260831193017 76 190 0.0 0.0 0.00 0.00 0.00 57 1018.3
20260831193004 77 0 0.0 0.0 0.00 0.00 0.00 55 1018.1
20260831192505 77 0 0.0 0.0 0.00 0.00 0.00 55 1018.3
20260831192005 77 0 0.0 0.0 0.00 0.00 0.00 53 1018.3
20260831191533 77 190 0.0 0.0 0.00 0.00 0.00 54 1018.6
20260831191504 77 0 0.0 0.0 0.00 0.00 0.00 54 1018.6
20260831191005 78 0 0.0 0.0 0.00 0.00 0.00 53 1018.7
20260831190505 77 191 0.0 1.0 0.00 0.00 0.00 52 1018.6
20260831190013 77 190 0.0 1.0 0.00 0.00 0.00 51 1018.9
20260831190004 77 191 0.0 1.0 0.00 0.00 0.00 51 1018.8
20260831185505 78 0 0.0 0.0 0.00 0.00 0.00 50 1018.7
20260831185004 78 0 0.0 0.0 0.00 0.00 0.00 53 1018.8
20260831184513 78 190 0.0 2.0 0.00 0.00 0.00 50 1018.8
20260831184005 79 191 0.0 3.0 0.00 0.00 0.00 50 1018.8
20260831183504 78 191 0.0 3.0 0.00 0.00 0.00 49 1018.9
20260831183025 78 190 0.0 0.0 0.00 0.00 0.00 50 1019.0
20260831183005 78 0 0.0 0.0 0.00 0.00 0.00 50 1018.9
20260831182505 78 0 0.0 0.0 0.00 0.00 0.00 54 1018.7
20260831182004 78 0 0.0 0.0 0.00 0.00 0.00 51 1018.8
20260831181514 78 190 0.0 0.0 0.00 0.00 0.00 50 1018.9
20260831181505 79 0 0.0 0.0 0.00 0.00 0.00 49 1018.8
20260831180012 78 190 0.0 3.0 0.00 0.00 0.00 47 1018.9
20260831180004 79 191 0.0 3.0 0.00 0.00 0.00 47 1018.8
20260831175505 79 191 0.0 3.0 0.00 0.00 0.00 47 1018.9
20260831175004 79 191 0.0 1.0 0.00 0.00 0.00 46 1019.0
20260831174514 78 190 0.0 3.0 0.00 0.00 0.00 48 1019.1
20260831174505 78 191 0.0 3.0 0.00 0.00 0.00 48 1019.1
20260831174004 78 191 0.0 3.0 0.00 0.00 0.00 47 1019.2
20260831173013 77 190 0.0 0.0 0.00 0.00 0.00 54 1019.2
20260831172505 77 0 0.0 0.0 0.00 0.00 0.00 49 1019.2
20260831171514 77 190 0.0 0.0 0.00 0.00 0.00 41 1019.6
20260831171505 78 0 0.0 0.0 0.00 0.00 0.00 41 1019.6
20260831171004 78 0 0.0 0.0 0.00 0.00 0.00 46 1019.6
20260831170505 79 0 0.0 0.0 0.00 0.00 0.00 47 1019.6
20260831170013 78 190 0.0 0.0 0.00 0.00 0.00 44 1019.7
20260831170005 79 0 0.0 0.0 0.00 0.00 0.00 44 1019.7
20260831165504 79 191 0.0 2.0 0.00 0.00 0.00 40 1019.6
20260831165005 80 191 0.0 2.0 0.00 0.00 0.00 39 1019.6
20260831164514 79 190 0.0 0.0 0.00 0.00 0.00 41 1019.8
20260831164505 79 0 0.0 0.0 0.00 0.00 0.00 41 1019.7
20260831164004 79 191 0.0 1.0 0.00 0.00 0.00 44 1019.7
20260831163016 78 190 0.0 1.0 0.00 0.00 0.00 42 1019.8
20260831163004 78 191 0.0 1.0 0.00 0.00 0.00 42 1019.7
20260831162505 78 191 0.0 1.0 0.00 0.00 0.00 41 1019.9
20260831162004 78 191 0.0 1.0 0.00 0.00 0.00 42 1020.0
20260831161513 78 190 0.0 1.0 0.00 0.00 0.00 45 1020.0
20260831161505 78 191 0.0 1.0 0.00 0.00 0.00 45 1020.0
20260831161005 78 191 0.0 1.0 0.00 0.00 0.00 45 1020.1
20260831160504 78 0 0.0 0.0 0.00 0.00 0.00 49 1020.2
20260831160024 78 190 0.0 0.0 0.00 0.00 0.00 49 1020.1
20260831160005 79 0 0.0 0.0 0.00 0.00 0.00 47 1020.1
20260831155504 79 191 0.0 2.0 0.00 0.00 0.00 43 1020.1
20260831155005 78 191 0.0 2.0 0.00 0.00 0.00 45 1020.1
20260831154512 77 190 0.0 1.0 0.00 0.00 0.00 52 1020.0
20260831154505 77 191 0.0 1.0 0.00 0.00 0.00 52 1019.9
20260831154005 77 191 0.0 1.0 0.00 0.00 0.00 49 1020.0
20260831153013 77 190 0.0 0.0 0.00 0.00 0.00 49 1020.1
20260831153004 77 0 0.0 0.0 0.00 0.00 0.00 48 1020.0
20260831152505 77 0 0.0 0.0 0.00 0.00 0.00 51 1020.0
20260831152004 76 0 0.0 0.0 0.00 0.00 0.00 51 1020.0
20260831151524 76 190 0.0 3.0 0.00 0.00 0.00 52 1020.2
20260831151505 76 191 0.0 2.0 0.00 0.00 0.00 52 1020.1
20260831150505 77 0 0.0 0.0 0.00 0.00 0.00 50 1020.0
20260831150014 77 190 0.0 2.0 0.00 0.00 0.00 51 1020.3
20260831145505 77 191 0.0 2.0 0.00 0.00 0.00 54 1020.2
20260831144515 75 190 0.0 0.0 0.00 0.00 0.00 53 1020.1
20260831144505 76 0 0.0 0.0 0.00 0.00 0.00 53 1020.0
20260831144005 76 191 0.0 1.0 0.00 0.00 0.00 58 1020.0
20260831143504 76 191 0.0 1.0 0.00 0.00 0.00 53 1020.0
20260831143013 75 190 0.0 0.0 0.00 0.00 0.00 58 1020.1
20260831143004 76 0 0.0 0.0 0.00 0.00 0.00 58 1020.0
20260831142505 75 191 0.0 1.0 0.00 0.00 0.00 56 1020.0
20260831142004 76 191 0.0 1.0 0.00 0.00 0.00 56 1020.1
20260831141515 76 190 0.0 0.0 0.00 0.00 0.00 62 1020.1
20260831141004 76 0 0.0 0.0 0.00 0.00 0.00 62 1020.0
20260831140505 75 0 0.0 0.0 0.00 0.00 0.00 58 1019.9
20260831140014 75 190 0.0 0.0 0.00 0.00 0.00 63 1020.1
20260831140005 76 0 0.0 0.0 0.00 0.00 0.00 63 1020.0
20260831135504 76 0 0.0 0.0 0.00 0.00 0.00 61 1020.0
20260831134514 74 190 0.0 1.0 0.00 0.00 0.00 63 1020.1
20260831134504 74 191 0.0 1.0 0.00 0.00 0.00 65 1020.0
20260831133504 74 191 0.0 1.0 0.00 0.00 0.00 67 1019.8
20260831133014 73 190 0.0 0.0 0.00 0.00 0.00 70 1019.9
20260831133005 73 0 0.0 0.0 0.00 0.00 0.00 70 1019.9
20260831132505 73 0 0.0 0.0 0.00 0.00 0.00 70 1019.8
20260831131505 71 190 0.0 0.0 0.00 0.00 0.00 73 1020.0
20260831130001 68 190 0.0 0.0 0.00 0.00 0.00 81 1020.0
20260831124603 65 190 0.0 0.0 0.00 0.00 0.00 82 1020.1
20260831123100 64 190 0.0 0.0 0.00 0.00 0.00 82 1020.1
20260831121606 62 190 0.0 0.0 0.00 0.00 0.00 82 1020.2
20260831120056 61 190 0.0 0.0 0.00 0.00 0.00 82 1020.0
20260831114555 60 190 0.0 0.0 0.00 0.00 0.00 82 1019.8
20260831113052 58 190 0.0 0.0 0.00 0.00 0.00 82 1019.7
20260831111553 57 190 0.0 0.0 0.00 0.00 0.00 82 1019.6
20260831110049 57 190 0.0 0.0 0.00 0.00 0.00 82 1019.4
20260831104549 57 190 0.0 0.0 0.00 0.00 0.00 82 1019.4
20260831103047 57 190 0.0 0.0 0.00 0.00 0.00 82 1019.0
20260831101552 57 190 0.0 0.0 0.00 0.00 0.00 82 1018.9
20260831094542 58 190 0.0 0.0 0.00 0.00 0.00 82 1018.9
20260831093047 58 190 0.0 0.0 0.00 0.00 0.00 82 1019.0
20260831091538 58 190 0.0 0.0 0.00 0.00 0.00 82 1018.8
20260831090036 58 190 0.0 0.0 0.00 0.00 0.00 82 1018.6
20260831084542 58 190 0.0 0.0 0.00 0.00 0.00 82 1018.7
20260831083034 59 190 0.0 0.0 0.00 0.00 0.00 82 1018.6
20260831081536 59 190 0.0 0.0 0.00 0.00 0.00 82 1018.6
20260831080029 59 190 0.0 0.0 0.00 0.00 0.00 82 1018.5